Location: Complexul Astronomic Baia Mare
(47.6577°N, 23.5639°E)
Time: 06:44:25
(UTC+03:00)

ISS - Pass Details

Date: 29 May 2017
Orbit: 402 x 408 km, 51.6° (Epoch: 29 May)

Event Time Altitude Azimuth Distance (km) Brightness Sun altitude
Rises 23:22:31 0° 279° (W) 2,333 0.6 -15.5°
Reaches altitude 10° 23:24:41 10° 287° (WNW) 1,472 -0.3 -15.7°
Maximum altitude 23:27:49 39° 359° (N) 628 -2.4 -15.9°
Drops below altitude 10° 23:30:56 10° 70° (ENE) 1,469 -1.1 -16.1°
Enters shadow 23:32:31 - 77° (ENE) 2,094 -0.3 -16.3°
